Torna al catalogo

STARLINK-3848

AttivoComunicazioniVLEO
NORAD 52362·PAYLOAD·🇺🇸 United States

Lanciato Apr 29, 2022 da Cape Canaveral Space Force Station

Loading…

Prossimi Passaggi (prossime 24 ore)

TLE

AggiornatoSource: CelesTrak SupGP

Epoca: Sep 14, 2026, 21:46 UTC

1 52362C 22045AH  26257.90743056  .00009220  00000+0  29642-3 0  2572
2 52362  53.1601  45.4908 0001213  71.8326  93.8404 15.31704053    18

Traccia STARLINK-3848 in tempo reale con AllMySat

Download on the App Store